RH
30 28 23 20 18 17 16 17 15 17 19 18 15 16 16 17 18 19 20 21 23 25 27 31 37 46 54 54 52 49 49 46 43 42 41 38 37 34
36 32 26 22 18 15 14 14 15 14 16 16 15 16 17 18 19 19 20 22 23 26 28 35 40 51 56 56 55 54 52 48 48 44 43 40 38 31
38 33 29 24 20 14 14 13 14 15 14 15 15 16 17 18 19 20 21 23 24 26 30 37 45 54 60 60 58 57 56 51 50 48 44 42 36 28
37 37 32 26 22 14 14 13 14 14 14 15 16 16 18 19 19 20 22 24 26 28 32 41 48 54 61 64 62 60 57 54 53 51 49 41 33 26
38 39 33 27 22 16 14 14 14 15 15 16 16 17 18 19 20 22 23 25 27 30 36 43 49 56 66 67 65 62 58 58 56 53 47 38 29 23
38 45 35 26 21 18 16 15 15 15 16 17 18 19 20 20 21 23 24 27 30 33 38 43 51 58 68 70 67 63 63 62 58 53 43 35 27 18
39 47 35 26 23 18 16 16 16 16 17 18 19 20 21 21 22 24 26 30 32 35 38 45 54 62 72 75 69 65 66 64 60 50 41 31 21 15
39 47 37 27 26 22 18 18 17 17 17 19 20 21 22 22 23 25 28 31 35 37 40 46 56 68 80 76 69 69 69 65 58 47 38 26 17 14
44 47 39 28 27 25 22 23 22 19 20 21 22 23 22 23 26 27 30 34 38 40 42 48 60 79 80 75 72 74 70 64 52 44 34 21 16 13
53 48 42 31 27 25 25 25 24 21 21 23 23 23 23 25 27 30 33 37 42 44 47 54 77 81 76 76 75 74 69 59 48 40 27 19 15 13
59 53 48 42 32 27 26 26 27 23 23 24 24 24 25 27 30 34 39 42 48 50 52 66 84 80 77 77 76 73 68 56 47 34 23 17 14 12
61 57 58 52 46 42 36 32 30 26 25 25 25 26 28 31 34 39 46 48 50 54 69 88 83 81 79 76 77 73 63 52 40 28 22 15 13 11
64 61 62 58 54 55 51 46 41 32 29 29 29 30 34 38 42 45 49 55 60 78 85 81 85 81 80 79 77 68 58 47 36 26 19 14 13 11
68 68 65 65 60 66 63 61 57 44 36 35 36 38 43 50 51 53 62 74 89 86 81 85 87 84 80 81 74 65 54 40 32 25 16 14 13 10
74 75 79 73 68 76 71 67 59 52 46 43 45 48 53 60 61 68 79 86 89 84 84 89 88 84 84 78 71 59 46 38 30 22 15 14 13 10
80 84 85 84 85 84 80 81 76 69 63 58 60 64 72 75 75 83 87 86 89 90 91 93 86 83 81 76 64 55 44 35 27 20 15 14 12 10
94 89 91 93 92 90 94 93 84 78 78 74 76 80 86 85 84 86 89 94 94 93 95 90 84 82 79 70 61 51 42 32 25 19 15 13 12 10
98 98 97 97 98 98 98 94 89 84 79 80 90 94 91 90 95 94 96 96 95 96 92 86 83 82 74 66 57 48 36 28 23 18 15 12 10 11
98 98 98 99 98 99 98 95 91 87 89 94 96 94 95 97 96 97 98 97 96 91 88 87 87 79 69 61 51 43 33 27 23 18 16 12 11 12
97 98 98 98 98 98 98 96 94 93 96 97 96 95 98 97 97 98 98 96 93 91 89 86 84 74 68 56 48 37 30 26 22 18 17 13 12 14
98 98 98 99 99 99 98 97 96 97 97 97 97 97 98 98 98 98 96 91 90 91 90 88 78 72 62 53 43 34 29 26 23 20 17 15 14 14
98 98 98 98 98 98 98 97 96 96 98 98 98 97 98 98 98 97 92 89 94 92 91 84 76 67 59 51 39 33 28 26 23 21 20 19 19 20
95 99 98 97 96 96 96 95 95 97 98 99 99 97 98 98 96 93 91 96 95 92 89 81 75 65 56 47 38 31 29 27 22 21 20 18 18 20